Location: *
(58.7167°N, 26.1833°E)
Time: 00:21:47
(UTC+00:00)

MOZ.5/SAFIR/RUBIN 5/SL-8 - Pass Details

Date: 25 August 2019
Orbit: 677 x 707 km, 98.0° (Epoch: 20 September)

Event Time Altitude Azimuth Distance (km) Brightness Sun altitude
Exits shadow 23:19:44 27° 146° (SE) 1,349 4.9 -19.5°
Maximum altitude 23:22:19 69° 69° (ENE) 757 4.0 -19.4°
Drops below altitude 10° 23:27:04 10° 347° (NNW) 2,179 7.2 -19.3°
Sets 23:29:20 0° 345° (NNW) 3,096 8.1 -19.2°
